Location: Augirein
(42.9320°N, 0.9181°E)
Time: 15:06:25
(UTC+00:00)

FALCON 9 DEB - Pass Details

Date: 20 June 2021
Orbit: 358 x 373 km, 53.0° (Epoch: 31 July)

Event Time Altitude Azimuth Distance (km) Brightness Sun altitude
Rises 02:28:38 0° 309° (NW) 2,251 6.8 -15.1°
Reaches altitude 10° 02:30:47 10° 317° (NW) 1,393 5.8 -14.9°
Maximum altitude 02:33:44 39° 29° (NNE) 578 4.4 -14.6°
Drops below altitude 10° 02:36:40 10° 101° (E) 1,377 6.0 -14.2°
Sets 02:38:46 0° 109° (ESE) 2,220 7.0 -14.0°
